Weather in Zhudre

Russia / Oryol Oblast     53°14′43″N   35°18′11″E
temp.,
°C
wind,
m/s
gust,
m/s
humid.,
%
clouds,
%
prec.,
mm/h
press.,
hPa
HPBL,
m
20 may, fri
fri2000:00+7nw238929 0.0 101647
03:00+7nnw239574 0.0 101670
06:00+8n2887100 0.0 1017466
09:00+12n35615 0.0 10181104
12:00+14n3441100 0.0 10171768
15:00+15nnw2338100 0.0 10161906
18:00+14n2250100 0.0 1015619
21:00+10ese3773100 0.0 1016185
21 may, sat
sat2100:00+9se4970100 0.0 1014365
03:00+7sse3791100 1.1 1012279
06:00+7se4997100 3.1 1010559
09:00+7ese51095100 5.4 1010693
12:00+7ese61093100 0.3 1009776
15:00+7ese5989100 0.4 1009686
18:00+8ese5884100 0.0 1007646
21:00+7ese41089100 0.1 1006503
22 may, sun
sun2200:00+6ese41091100 0.3 1004524
03:00+6e51197100 1.9 1003509
06:00+5e61196100 2.8 1001697
09:00+4e61196100 6.3 1002803
12:00+6e41093100 1.7 1003876
15:00+9e4781100 2.0 1004868
18:00+8ne4984100 0.4 1005532
21:00+6nne229093 0.5 100627
23 may, mon
mon2300:00+3n23925 0.0 100751
03:00+2n22916 0.0 100843
06:00+3n26835 0.0 1009145
09:00+10n36495 0.0 10091200
12:00+13nnw4537100 0.0 10092510
15:00+14nw453684 0.0 10082377
18:00+14nnw464742 0.0 10081680
21:00+6n22700 0.0 101019
24 may, tue
tue2400:00+4nw22777 0.0 101233
03:00+3nw3580100 0.0 101368
06:00+4nw2871100 0.0 1014173
09:00+10nw4750100 0.0 1014472
12:00+14nnw5847100 0.0 10141604
15:00+15nnw3956100 0.0 10131737
18:00+16nnw375876 0.2 10141309
21:00+12wnw2473100 0.2 101666